sat.trackr.live / text

‹ back to catalog

TIANPING 2C

NORAD 52156 · 2022-032D

PAYLOAD ACTIVE UNKNOWN

§ Identity

Operator
Country
PRC
Launch date
2022-03-30
Launch site
JSC
Launch vehicle
Mass (kg)
RCS (m²)

External: N2YO · Heavens-Above · Gunter

§ Orbital elements

Epoch: 2026-09-20T22:31:11.915904Z

Period
95.24 min
Inclination
97.5746°
Eccentricity
0.0006381
Mean motion
15.11943001 rev/d
Perigee alt
525.9 km
Apogee alt
534.7 km
Semi-major
6,908.4 km
B*
1.1597e-4
RAAN
315.5032°
Arg perigee
171.8110°
Mean anomaly
188.3226°
Rev number
24,531

§ Raw data

TIANPING 2C1 52156U 22032D   26263.93833236  .00001923  00000+0  11597-3 0  99942 52156  97.5746 315.5032 0006381 171.8110 188.3226 15.11943001245315

JSON: /api/v1/satellites/52156 · /tle

For live sub-satellite position, see the globe view (requires WebGL).

§ Visibility from observer

Set your observer location to see the next 7 days of passes ≥ 10°. The values pass through the URL so the page stays shareable.

No JS? Fill the form by hand. The geolocation button needs JavaScript.